#timestamp,LO_Frequency,Hit,StdDev 
1610611215.2,286046999.7,N
1610611235.0,286046998.2,N
1610611235.9,286046998.2,N
1610611255.7,286046998.2,N
1610611275.6,286046998.7,N
1610611295.4,286046998.3,N
1610611315.3,286046998.4,N
1610611335.1,286046999.3,N
1610611336.0,286046999.3,N
1610611355.8,286046998.9,N
1610611375.7,286046999.0,N
1610611395.5,286046999.4,N
1610611415.3,286046999.2,N
1610611435.2,286046997.2,N
1610611455.0,286046999.0,N
1610611455.9,286046999.0,N
1610611475.8,286046999.1,N
1610611495.6,286046999.0,N
1610611515.4,286046996.5,N
1610611535.3,286046996.6,N
1610611555.1,286046998.7,N
1610611575.8,286046996.6,N
1610611595.7,286046999.5,N
1610611615.5,286047001.2,N
1610611635.4,286047000.9,N
1610611655.2,286046999.7,N
1610611675.0,286047003.3,N
1610611675.9,286047003.3,N
1610611695.8,286047004.1,N
1610611715.6,286047003.6,N
1610611735.4,286047004.0,N
1610611755.3,286047003.5,N
1610611775.1,286047005.7,N
1610611795.9,286047005.8,N
1610611815.7,286047002.9,N
1610611835.5,286047005.8,N
1610611855.4,286047004.2,N
1610611875.2,286047004.0,N
1610611895.0,286047004.1,N
1610611895.9,286047004.1,N
1610611915.8,286047003.8,N
1610611935.6,286047005.3,N
1610611955.5,286047004.0,N
1610611975.3,286047003.5,N
1610611995.1,286047003.1,N
1610612015.9,286047003.7,N
1610612035.7,286047006.8,N
1610612055.5,286047006.5,N
1610612075.4,286047010.7,Y
1610612095.2,286047001.7,P
1610612115.1,286047004.3,P
1610612116.0,286047004.3,P
1610612135.8,286047001.6,N
1610612155.6,286047000.8,N
1610612175.5,286047001.0,N
1610612195.3,286046999.1,N
1610612215.1,286046999.4,N
1610612235.9,286046999.1,N
1610612255.7,286046994.9,N
1610612275.6,286046995.1,N
1610612295.4,286046995.5,N
1610612315.2,286046996.0,N
1610612335.1,286046993.6,N
1610612336.0,286046993.6,N
1610612355.8,286046993.4,N
1610612375.6,286046993.3,N
1610612395.5,286046991.7,N
1610612415.3,286046994.0,N
1610612435.2,286046993.8,N
1610612455.9,286046993.7,N
1610612475.7,286046993.3,N
1610612495.6,286046993.3,N
1610612515.4,286046993.6,N
1610612535.2,286046994.1,N
1610612555.1,286046996.1,N
1610612556.0,286046996.1,N
1610612575.8,286046993.5,N
1610612595.7,286046994.9,N
1610612615.5,286046997.6,N
1610612635.3,286046997.2,N
1610612655.2,286046997.7,N
1610612675.0,286046997.6,N
1610612675.9,286046997.6,N
1610612695.7,286046997.5,N
1610612715.6,286046997.6,N
1610612735.4,286046995.1,N
1610612755.3,286046995.0,N
1610612775.1,286046997.8,N
1610612776.0,286046997.8,N
1610612795.8,286046997.9,N
1610612815.7,286046997.1,N
1610612835.5,286046995.3,N
1610612855.3,286046997.8,N
1610612875.2,286046995.0,N
1610612895.0,286046998.0,N
1610612895.9,286046998.0,N
1610612915.8,286046995.2,N
1610612935.6,286046995.4,N
1610612955.4,286046995.3,N
1610612975.3,286046996.6,N
1610612995.1,286046998.9,N
1610613015.8,286046996.8,N
1610613035.7,286046999.6,N
1610613055.5,286046998.7,N
1610613075.4,286046996.5,N
1610613095.2,286046995.3,Y
1610613115.0,286046998.7,P
1610613115.9,286046998.7,N
1610613135.8,286046998.3,N
1610613155.6,286047000.0,N
1610613175.4,286047002.6,N
1610613195.3,286047001.3,N
1610613215.1,286047002.5,N
1610613235.9,286047002.4,N
1610613255.7,286047000.4,N
1610613275.5,286047000.0,N
1610613295.4,286047002.8,N
1610613315.2,286047001.8,N
1610613335.0,286047001.8,N
1610613335.9,286047001.8,N
1610613355.8,286047005.6,Y
1610613375.6,286047001.5,P
1610613395.5,286047002.1,P
1610613415.3,286047001.6,N
1610613435.1,286047002.8,Y
1610613455.9,286047001.9,P
1610613475.7,286046999.8,N
1610613495.6,286047001.1,N
1610613515.4,286046998.1,N
1610613535.2,286046998.3,N
1610613555.1,286047000.8,N
1610613556.0,286047000.8,N
1610613575.8,286047000.7,N
1610613595.6,286047002.5,N
1610613615.5,286047002.0,N
1610613635.3,286047001.5,N
1610613655.2,286047002.5,N
1610613675.9,286047002.7,N
1610613695.7,286047000.9,N
1610613715.6,286046999.9,N
1610613735.4,286046999.9,N
1610613755.2,286047000.2,N
1610613775.1,286047000.3,N
1610613776.0,286047000.3,N
1610613795.8,286047002.3,N
1610613815.7,286047002.0,N
1610613835.5,286047001.6,N
1610613855.3,286047001.9,N
1610613875.2,286047002.8,N
1610613895.0,286047000.5,N
1610613895.9,286047000.5,N
1610613915.7,286046998.6,N
1610613935.6,286046998.3,N
1610613955.4,286046999.0,N
1610613975.3,286047001.1,N
1610613995.1,286046999.3,N
1610613996.0,286046999.3,N
1610614015.8,286047000.6,N
1610614035.7,286047002.8,N
1610614055.5,286047001.0,N
1610614075.3,286046998.7,N
1610614095.2,286046999.1,N
1610614115.0,286046999.6,N
1610614115.9,286046999.6,N
1610614135.8,286046999.6,N
1610614155.6,286046996.8,N
1610614175.4,286046997.3,N
1610614195.3,286046999.6,N
1610614215.1,286046998.7,N
1610614235.8,286047011.9,Y
1610614255.7,286046996.8,P
1610614275.5,286046997.9,N
1610614295.4,286046996.7,N
1610614315.2,286046998.9,N
1610614335.0,286047001.2,N
1610614335.9,286047001.2,N
1610614355.8,286047002.6,N
1610614375.6,286047002.1,N
1610614395.4,286047002.2,N
1610614415.3,286047000.5,N
1610614435.1,286046999.7,N
1610614455.9,286047000.8,N
1610614475.7,286047000.9,N
1610614495.5,286046999.9,N
1610614515.4,286047000.9,N
1610614535.2,286046998.2,N
1610614555.0,286047001.2,N
1610614555.9,286047001.2,N
1610614575.8,286046999.3,N
1610614595.6,286046999.0,N
1610614615.5,286046999.1,N
1610614635.3,286046998.8,N
1610614655.1,286046996.5,N
1610614675.9,286046998.4,N
1610614695.7,286046996.7,N
1610614715.5,286046997.2,N
1610614735.4,286046999.1,N
1610614755.2,286046999.2,N
1610614775.1,286046998.5,N
1610614776.0,286046998.5,N
1610614795.8,286046998.4,N
